Location: *
(50.8512°N, 5.6907°E)
Time: 09:21:00
(UTC+00:00)

SL-4 R/B - Pass Details

Date: 09 April 2020
Orbit: 428 x 666 km, 51.6° (Epoch: 25 May)

Event Time Altitude Azimuth Distance (km) Brightness Sun altitude
Rises 19:01:38 0° 244° (WSW) 2,397 6.0 -6.5°
Reaches altitude 10° 19:03:45 10° 241° (WSW) 1,524 4.9 -6.9°
Maximum altitude 19:07:07 64° 160° (SSE) 480 1.5 -7.3°
Drops below altitude 10° 19:10:31 10° 78° (ENE) 1,545 3.8 -7.8°
Enters shadow 19:11:15 - 77° (ENE) 1,846 4.2 -8.0°
